Date,TemperatureHighF,TemperatureAvgF,TemperatureLowF,DewpointHighF,DewpointAvgF,DewpointLowF,HumidityHigh,HumidityAvg,HumidityLow,PressureMaxIn,PressureMinIn,WindSpeedMaxMPH,WindSpeedAvgMPH,GustSpeedMaxMPH,PrecipitationSumIn
2012-8-22,68.4,67.5,66.2,61.6,60.5,58.0,82,79,75,27.93,27.91,1,0,4,0.00
2012-8-23,89.4,74.7,0.0,70.0,62.7,58.0,91,68,43,31.11,27.91,3,1,6,0.00
2012-8-24,97.5,70.0,59.5,74.0,62.3,56.3,91,78,41,30.17,30.11,7,0,7,0.58
2012-8-25,63.9,62.3,61.0,60.9,59.4,58.3,91,90,89,30.17,30.14,0,0,0,0.00
2012-8-26,80.2,72.8,0.0,68.7,64.8,0.0,86,75,68,30.14,30.11,4,0,4,0.25
2012-8-27,82.6,71.8,63.9,71.9,65.0,61.1,92,80,59,37.40,30.06,8,1,8,0.00
2012-8-28,80.6,70.8,63.5,70.9,65.0,59.7,91,82,69,30.09,30.00,6,0,6,0.00
2012-8-29,83.1,72.7,67.6,74.4,68.7,64.8,93,87,74,30.06,29.97,8,0,8,0.29
2012-8-30,81.0,72.7,0.0,75.7,70.8,65.9,96,92,82,30.18,30.03,6,0,6,0.38
2012-8-31,86.4,75.6,68.9,77.4,71.1,68.0,97,87,67,30.27,30.15,4,0,4,0.00
2012-9-1,86.9,75.7,69.1,75.5,70.5,66.7,93,85,64,30.21,30.12,8,1,8,0.13
2012-9-2,82.6,74.7,69.1,75.8,70.5,67.0,94,87,77,30.12,30.00,5,0,5,0.00
2012-9-3,77.7,72.9,68.4,75.2,70.3,66.7,96,92,87,30.06,29.97,8,1,8,0.83
2012-9-4,74.7,71.0,69.1,72.5,69.3,67.0,96,94,92,30.03,29.97,7,1,7,0.21
2012-9-5,79.9,73.1,68.5,75.2,70.5,67.1,96,92,82,30.00,29.91,6,0,6,0.12
2012-9-6,81.9,73.2,68.0,74.4,68.8,65.9,96,87,68,30.03,29.94,5,1,5,0.00
2012-9-7,85.3,73.8,65.7,74.1,68.0,63.1,94,83,65,30.03,29.91,8,1,8,0.00
2012-9-8,82.4,71.0,63.1,74.1,65.6,58.6,93,84,70,29.91,29.80,12,2,12,0.04
2012-9-9,74.5,64.4,55.4,59.5,54.5,50.3,85,72,50,30.06,29.88,13,3,13,0.00
2012-9-10,77.0,64.1,52.7,60.8,52.7,48.0,89,69,43,30.15,30.03,9,1,9,0.00
2012-9-11,75.0,65.6,59.0,61.8,57.3,53.0,86,75,60,30.27,30.15,10,1,10,0.00
2012-9-12,74.5,65.6,57.6,65.1,58.1,53.1,90,77,61,30.33,30.24,14,2,14,0.00
2012-9-13,69.4,63.4,59.4,58.2,56.2,54.5,85,78,65,30.30,30.24,3,0,3,0.00
2012-9-14,77.9,66.2,58.1,64.0,58.0,53.9,90,76,55,30.27,30.18,10,1,10,0.00
2012-9-15,79.7,67.2,56.7,65.8,59.2,52.5,90,77,55,30.24,30.12,8,1,8,0.00
2012-9-16,72.0,67.4,64.0,68.2,63.8,60.8,93,88,82,30.15,30.09,8,1,8,0.08
2012-9-17,70.5,66.8,63.7,67.3,64.5,61.3,95,92,88,30.12,29.85,23,2,23,0.46
2012-9-18,68.7,66.1,59.4,67.8,65.4,58.5,98,97,95,29.91,29.77,27,3,27,3.07
2012-9-19,71.1,63.8,54.0,63.0,58.7,52.6,95,84,73,30.12,29.97,9,2,9,0.00
2012-9-20,72.0,65.3,60.3,63.3,59.5,57.1,90,82,71,30.12,30.06,12,2,12,0.00
2012-9-21,74.8,64.7,56.7,64.8,59.2,53.9,93,83,64,30.09,30.00,9,1,9,0.00
2012-9-22,79.2,70.8,62.2,66.4,58.5,47.3,88,66,50,30.06,29.94,16,3,16,0.00
2012-9-23,70.3,60.3,51.6,52.8,45.6,37.1,76,60,42,30.12,29.99,16,2,16,0.00
2012-9-24,67.1,56.0,44.8,47.1,42.3,35.5,76,61,45,30.14,27.95,10,2,10,0.00
2012-9-25,71.6,60.8,46.2,60.0,52.4,39.7,84,74,65,28.01,27.95,8,2,8,0.00
2012-9-26,77.0,65.1,54.1,65.6,58.3,50.0,89,79,65,28.01,27.95,10,1,10,0.00
2012-9-27,75.0,64.6,55.8,65.8,57.6,51.5,92,79,57,28.01,27.92,10,1,10,0.00
2012-9-28,77.0,66.7,57.2,66.5,60.1,52.7,92,80,67,27.95,27.83,9,1,9,0.00
2012-9-29,72.1,68.6,59.9,66.5,62.9,57.3,92,82,74,27.83,27.68,8,1,8,0.17
2012-9-30,69.1,61.3,55.2,62.1,56.7,53.1,94,85,74,27.74,27.66,12,2,12,0.00
2012-10-1,65.7,61.7,59.4,61.8,58.9,56.1,96,91,82,27.68,27.57,12,2,12,0.54
2012-10-2,70.9,66.6,61.2,69.1,64.4,60.0,98,93,79,27.80,27.57,12,2,15,1.45
2012-10-3,72.1,65.3,61.2,63.5,60.4,58.7,93,84,65,27.98,27.80,10,1,10,0.00
2012-10-4,70.9,64.5,59.0,61.1,58.1,53.5,92,81,63,28.04,27.98,14,2,14,0.00
2012-10-5,71.2,63.8,51.3,61.3,56.2,47.5,91,77,64,28.01,27.83,9,2,9,0.00
2012-10-6,72.0,61.5,52.9,62.3,55.2,49.1,91,80,70,27.86,27.74,12,2,12,0.00
2012-10-7,60.3,54.7,48.2,57.9,50.8,43.0,93,87,81,30.09,27.74,11,2,11,0.16
2012-10-8,53.1,50.0,48.6,51.4,45.8,42.8,94,85,80,30.15,30.06,7,1,7,0.00
2012-10-9,57.9,52.2,48.0,52.2,47.0,44.0,90,83,74,30.12,30.03,10,2,10,0.00
2012-10-10,63.3,55.3,46.8,54.0,48.3,42.8,90,78,68,30.12,30.00,15,2,15,0.00
2012-10-11,52.9,50.6,48.6,44.8,42.8,41.3,76,75,73,30.15,30.12,10,2,10,0.00
2012-10-12,65.8,60.1,0.0,57.7,52.7,0.0,83,76,71,30.27,30.18,10,2,10,0.00
2012-10-13,60.8,54.7,50.4,49.1,47.1,43.6,88,76,63,30.39,30.27,11,1,11,0.00
2012-10-14,65.5,57.4,48.9,60.2,52.6,43.0,90,84,78,30.27,30.03,12,1,12,0.00
2012-10-15,65.7,60.9,53.6,63.1,54.5,42.1,97,81,54,30.03,29.83,20,3,20,1.00
2012-10-16,63.1,55.0,47.5,47.3,42.0,38.1,77,62,45,29.97,29.85,13,2,13,0.00
2012-10-17,64.8,53.6,42.1,51.5,43.1,36.0,82,68,52,29.97,29.88,15,2,15,0.00
2012-10-18,64.0,57.8,53.2,57.4,51.2,42.1,87,79,65,29.88,29.77,9,2,9,0.00
2012-10-19,63.1,54.1,44.2,51.7,41.9,33.4,88,66,44,29.80,29.71,13,2,13,0.00
2012-10-20,61.5,52.0,43.0,46.5,40.3,35.3,75,65,52,29.97,29.77,13,2,13,0.00
2012-10-21,64.4,52.7,42.8,47.4,40.8,36.6,83,65,45,30.12,29.97,16,2,16,0.00
2012-10-22,68.9,55.2,42.4,53.1,44.2,35.6,81,67,51,30.21,30.12,7,1,7,0.00
2012-10-23,70.3,57.5,46.2,55.8,47.9,40.6,85,71,52,30.18,30.09,8,1,8,0.00
2012-10-24,71.8,58.6,46.6,58.4,48.7,40.7,88,71,49,30.21,30.09,8,1,8,0.00
2012-10-25,70.0,57.5,46.0,58.9,49.2,40.2,84,74,62,30.15,30.09,9,1,9,0.00
2012-10-26,71.6,60.5,54.3,61.0,54.2,49.1,90,80,65,30.12,29.97,9,1,9,0.00
2012-10-27,67.1,56.6,50.5,58.6,51.0,46.2,92,82,71,29.97,29.80,18,2,18,0.00
2012-10-28,55.4,48.6,40.6,47.6,42.7,34.3,84,80,73,29.85,29.77,20,5,20,0.08
2012-10-29,42.3,39.7,36.9,35.6,33.5,31.0,82,78,73,29.77,29.59,25,6,25,0.00
2012-10-30,40.8,37.6,35.6,32.8,31.3,29.4,84,78,71,29.68,29.47,28,6,28,0.00
2012-10-31,53.8,42.6,38.1,38.9,32.3,25.1,77,67,53,29.77,29.65,17,5,17,0.00
2012-11-1,54.0,42.9,37.6,34.6,27.4,21.8,65,54,45,29.85,29.77,18,4,18,0.00
2012-11-2,61.2,45.9,34.9,43.2,32.3,22.0,73,59,48,29.97,29.83,13,2,13,0.00
2012-11-3,66.6,48.5,36.1,45.7,34.5,27.3,74,59,46,30.06,29.97,12,2,12,0.00
2012-11-4,62.2,51.5,45.9,52.1,42.2,36.0,81,70,60,29.97,29.91,10,2,10,0.00
2012-11-5,54.7,45.8,38.5,36.3,33.3,30.8,78,63,46,30.03,29.94,13,3,13,0.00
2012-11-6,46.0,43.2,40.8,37.2,34.0,29.9,77,70,56,30.03,29.88,10,1,10,0.09
2012-11-7,46.2,42.8,40.5,41.7,37.5,33.5,85,82,76,29.97,29.80,14,2,14,0.12
2012-11-8,53.2,43.7,37.2,36.8,33.4,28.9,81,68,49,30.12,29.97,15,4,15,0.04
2012-11-9,60.8,43.2,32.2,40.1,31.6,25.8,81,65,46,30.21,30.12,10,1,10,0.00
2012-11-10,64.4,45.4,32.9,43.0,32.9,25.8,79,63,45,30.33,30.21,8,1,8,0.00
2012-11-11,63.0,49.4,35.1,49.7,39.3,27.6,78,68,59,30.39,30.30,15,2,15,0.00
2012-11-12,62.2,58.3,46.8,56.4,53.2,42.5,90,83,75,30.33,30.15,15,4,15,0.33
2012-11-13,50.4,42.0,33.6,42.5,34.5,27.5,85,75,58,30.30,30.21,18,4,18,0.05
2012-11-14,48.6,37.9,28.6,36.1,29.9,23.1,85,73,60,30.36,30.21,9,1,9,0.00
2012-11-15,55.4,42.0,35.4,43.8,34.9,28.0,85,76,63,30.24,30.12,9,1,9,0.12
2012-11-16,55.4,40.1,30.4,40.4,32.0,25.5,88,74,56,30.30,30.15,10,1,10,0.00
2012-11-17,53.2,39.2,30.2,34.5,27.9,22.8,82,65,47,30.36,30.30,11,2,11,0.00
2012-11-18,54.7,40.9,30.7,43.8,32.2,21.8,79,71,63,30.36,30.27,6,1,6,0.00
2012-11-19,59.9,46.0,34.9,51.0,40.3,29.3,86,80,71,30.30,30.15,7,1,7,0.00
2012-11-20,59.0,45.9,39.2,44.4,37.2,30.8,91,73,49,30.15,30.00,12,1,12,0.00
2012-11-21,61.3,46.1,35.8,43.4,35.3,29.9,82,67,48,30.15,30.06,16,2,16,0.00
2012-11-22,60.3,44.1,33.6,41.9,33.1,27.4,81,66,49,30.21,30.12,8,1,8,0.00
2012-11-23,59.4,44.4,32.2,44.4,34.2,25.5,83,68,52,30.12,29.91,18,2,18,0.00
2012-11-24,43.2,36.5,28.9,28.8,22.5,15.8,64,57,49,30.06,29.94,20,5,20,0.00
2012-11-25,52.2,35.0,24.4,30.9,21.1,15.2,74,58,43,30.06,29.94,8,1,8,0.00
2012-11-26,59.7,41.8,27.7,38.7,26.6,17.9,72,56,45,30.15,30.03,8,2,8,0.00
2012-11-27,53.2,46.8,42.4,42.8,36.2,28.5,77,67,47,30.15,30.06,9,2,9,0.00
2012-11-28,49.8,39.7,30.7,35.6,27.0,17.9,79,61,44,30.30,30.12,19,2,19,0.00
2012-11-29,54.5,37.4,25.9,38.7,26.6,16.1,73,65,55,30.33,30.24,9,1,9,0.00
2012-11-30,56.1,39.9,28.4,42.1,31.3,21.6,84,72,58,30.30,30.18,6,1,6,0.00
2012-12-1,59.0,43.3,31.5,47.5,35.8,25.9,86,75,64,30.33,30.24,7,1,7,0.00
2012-12-2,64.0,50.8,39.7,50.9,42.7,34.3,91,75,56,30.30,30.21,13,2,13,0.00
2012-12-3,66.2,51.0,40.5,53.9,43.2,35.7,89,75,61,30.27,30.18,9,1,9,0.00
2012-12-4,65.5,51.6,39.6,51.7,43.3,34.8,90,74,57,30.27,30.15,13,2,13,0.00
2012-12-5,55.0,47.6,0.0,46.5,41.3,38.3,81,74,71,30.18,30.12,6,1,6,0.00
2012-12-6,53.8,48.5,45.1,42.5,38.7,35.0,84,69,58,30.21,30.12,8,1,8,0.00
2012-12-7,60.8,49.4,43.7,53.7,42.4,34.6,85,77,65,30.12,29.94,10,1,10,0.04
2012-12-8,64.2,52.1,42.8,55.0,47.6,38.3,94,85,70,30.03,29.94,9,1,9,0.00
2012-12-9,64.4,56.0,48.7,57.0,51.7,46.5,95,86,72,30.09,29.97,15,2,15,0.00
2012-12-10,59.7,56.9,50.4,56.5,54.0,46.3,94,90,85,29.97,29.71,18,2,18,0.17
2012-12-11,50.0,41.2,36.7,46.3,35.4,31.0,87,80,73,30.09,29.77,14,3,18,0.00
2012-12-12,44.6,39.8,35.6,37.7,34.4,31.4,88,81,74,30.21,30.09,8,1,8,0.00
2012-12-13,51.4,41.3,32.2,34.5,29.5,23.2,76,63,50,30.27,30.18,8,2,8,0.00
2012-12-14,55.2,38.1,27.3,39.3,28.0,19.8,79,68,51,30.27,30.15,5,1,5,0.00
2012-12-15,55.0,44.1,35.1,39.6,33.8,26.9,79,67,54,30.18,30.03,18,2,18,0.00
2012-12-16,53.1,50.5,49.3,50.8,43.6,37.2,94,78,63,30.03,29.88,4,0,4,0.70
2012-12-17,54.1,50.7,48.7,51.9,48.9,46.8,95,94,91,29.88,29.68,9,2,9,0.08
2012-12-18,49.8,44.1,33.6,47.6,37.9,27.7,94,79,60,29.94,29.68,22,3,22,0.00
2012-12-19,57.7,41.5,31.3,46.2,35.2,26.0,88,79,64,30.06,29.91,9,1,9,0.04
2012-12-20,49.5,43.3,36.7,43.8,39.1,30.7,92,85,74,30.06,29.56,18,2,18,0.79
2012-12-21,37.6,34.2,30.2,30.7,22.2,14.4,76,62,51,29.85,29.62,48,8,48,0.00
2012-12-22,44.4,32.5,27.0,23.5,15.9,11.7,58,50,43,30.09,29.85,24,6,26,0.00
2012-12-23,47.8,34.7,24.6,30.6,22.1,13.4,71,60,51,30.09,29.97,4,1,4,0.00
2012-12-24,50.7,43.9,37.8,47.3,39.6,27.4,93,85,66,29.97,29.80,7,1,7,0.33
2012-12-25,49.5,43.6,36.7,45.7,40.3,34.3,95,88,81,30.00,29.88,10,2,10,0.13
2012-12-26,46.4,42.7,33.1,44.3,39.5,27.1,94,88,75,29.88,29.47,21,5,21,1.41
2012-12-27,37.2,33.0,30.2,30.2,27.1,24.9,86,79,74,30.00,29.71,32,6,32,0.00
2012-12-28,45.1,35.1,27.1,38.0,30.2,23.3,90,82,73,30.06,29.88,9,1,9,0.08
2012-12-29,43.7,36.8,30.0,39.6,31.7,21.4,92,82,70,30.00,29.74,24,4,24,0.17
2012-12-30,38.5,30.5,26.6,23.0,20.1,18.1,73,65,52,30.30,29.97,32,6,32,0.00
2012-12-31,48.2,35.7,25.9,30.8,24.5,19.4,79,65,49,30.27,30.06,7,1,7,0.00
2013-1-1,43.2,40.7,38.3,41.0,34.5,26.5,92,79,60,30.06,29.91,5,0,5,0.53